Location: La Coruña
(43.3623°N, 8.4115°W)
Time: 09:12:19
(UTC+01:00)

STARLINK-1107 - Pass Details

Date: 17 January 2020
Orbit: 345 x 354 km, 53.0° (Epoch: 23 February)

Event Time Altitude Azimuth Distance (km) Brightness Sun altitude
Rises 19:59:46 0° 244° (WSW) 2,158 8.2 -16.9°
Reaches altitude 10° 20:01:48 10° 249° (WSW) 1,319 6.8 -17.3°
Maximum altitude 20:04:41 53° 328° (NNW) 439 3.2 -17.8°
Enters shadow 20:05:06 48° 3° (N) 473 3.1 -17.8°
